星链-34745 (STARLINK-34745)

导读

STARLINK-34745是美国太空探索技术公司Starlink星链互联网星座的一员,于2025年7月31日由美国发射升空。该卫星属于星链项目低轨卫星组网扩容任务,运行在近地轨道,为全球提供高速低延迟互联网覆盖服务,尤其服务偏远地区与网络基础设施薄弱区域,进一步扩充了星链星座的规模。

基本信息
目录编号:
65057
目录名称:
STARLINK-34745
国际标识:
2025-165B
轨道中心:
EARTH
卫星名称:
星链-34745
卫星全名:
星链-34745 (STARLINK-34745)
卫星状态:
在轨 (已飞行407 天)
发射日期:
2025-07-31 UTC
国别 :
美国 (US)
星等 :
--
该卫星已列入 空间交会检测服务 Space Conjunction Data Service (SCDS) ,当前飞行风险评估等级: 无高风险
轨道信息
数据来源 国际轨道数据
星历时间: 2026-09-11T22:00:03+0800
6小时前
查看轨道信息
半长轴: 6885.242km
偏心率: 0.0001667
轨道倾角: 97.285°
近地点辐角 91.438°
升交点赤经 325.982°
平近点角 225.837°
近地点: 505.957km
远地点: 508.253km
周期: 94.763分钟
每日圈数: 15.195816
详细信息
固有亮度:
5
最大亮度:
2.5
卫星平台:
Starlink V1.0
覆盖范围:
全球
运营商:
太空探索技术公司
运营商所在国:
美国
制造商(研发单位):
太空探索技术公司
制造商所在国:
美国
使用方式:
暂无
卫星简介
Starlink 计划是 SpaceX 推出的全球卫星互联网项目,通过发射低轨道卫星,为全球尤其是偏远地区提供高速、低延迟的互联网服务。自 2019 年起,Starlink 已部署数千颗卫星,旨在缩小全球数字鸿沟,推动互联网普及。该项目还为军事、航空等行业提供通信支持,带来广泛经济效益。
2D轨道图
3D轨道图
轨道高度分析图
轨道倾角分析图
轨道综合分析图
查看轨道综合分析图
交会数据列表
事件ID 空间交会对象 最接近时刻(TCA) 交会距离 交会风险概率(CRP) 交会风险指数(CRI) 操作
CDM_260913-173106-505706-508121
2026-09-13T
17:31:39+0000
0.677 km
远距离
8.117658E-5 中风险 0.73
CDM_260913-003906-505706-697821
2026-09-13T
00:39:30+0000
1.522 km
极远距离
5.06562E-6 低风险 0.49
CDM_260913-082904-843806-505721
2026-09-13T
08:29:01+0000
1.473 km
极远距离
4.949453E-6 低风险 0.49
CDM_260912-173905-746006-505721
2026-09-12T
17:39:46+0000
2.091 km
极远距离
1.722943E-6 低风险 0.4
CDM_260913-151006-505706-508121
2026-09-13T
15:10:54+0000
2.661 km
极远距离
1.38175E-6 低风险 0.38
CDM_260912-230506-505706-697821
2026-09-12T
23:05:16+0000
2.712 km
极远距离
1.259369E-6 低风险 0.37
与全量物体交会距离演化趋势
与全量物体交会风险概率演化趋势